Year,Month,Day,Hour,Minute,Value (Times are PST for barometer in hPa)
2006,11,15,00,00,1009.82
2006,11,15,00,01,1009.82
2006,11,15,00,02,1009.82
2006,11,15,00,03,1009.82
2006,11,15,00,04,1009.82
2006,11,15,00,05,1009.82
2006,11,15,00,06,1009.82
2006,11,15,00,07,1009.82
2006,11,15,00,08,1009.82
2006,11,15,00,09,1009.82
2006,11,15,00,10,1009.82
2006,11,15,00,11,1009.82
2006,11,15,00,12,1009.82
2006,11,15,00,13,1009.82
2006,11,15,00,14,1009.82
2006,11,15,00,15,1009.25
2006,11,15,00,16,1009.25
2006,11,15,00,17,1009.25
2006,11,15,00,18,1009.25
2006,11,15,00,19,1009.25
2006,11,15,00,20,1009.25
2006,11,15,00,21,1009.25
2006,11,15,00,22,1009.25
2006,11,15,00,23,1009.25
2006,11,15,00,24,1009.25
2006,11,15,00,25,1009.25
2006,11,15,00,26,1009.25
2006,11,15,00,27,1009.25
2006,11,15,00,28,1009.25
2006,11,15,00,29,1009.25
2006,11,15,00,30,1008.43
2006,11,15,00,31,1008.43
2006,11,15,00,32,1008.43
2006,11,15,00,33,1008.43
2006,11,15,00,34,1008.43
2006,11,15,00,35,1008.43
2006,11,15,00,36,1008.43
2006,11,15,00,37,1008.43
2006,11,15,00,38,1008.43
2006,11,15,00,39,1008.43
2006,11,15,00,40,1008.43
2006,11,15,00,41,1008.43
2006,11,15,00,42,1008.43
2006,11,15,00,43,1008.43
2006,11,15,00,44,1008.43
2006,11,15,00,45,1007.79
2006,11,15,00,46,1007.76
2006,11,15,00,47,1007.76
2006,11,15,00,48,1007.76
2006,11,15,00,49,1007.76
2006,11,15,00,50,1007.76
2006,11,15,00,51,1007.76
2006,11,15,00,52,1007.76
2006,11,15,00,53,1007.76
2006,11,15,00,54,1007.76
2006,11,15,00,55,1007.76
2006,11,15,00,56,1007.76
2006,11,15,00,57,1007.76
2006,11,15,00,58,1007.76
2006,11,15,00,59,1007.76
2006,11,15,01,00,1007.45
2006,11,15,01,01,1007.45
2006,11,15,01,02,1007.45
2006,11,15,01,03,1007.45
2006,11,15,01,04,1007.45
2006,11,15,01,05,1007.45
2006,11,15,01,06,1007.45
2006,11,15,01,07,1007.45
2006,11,15,01,08,1007.45
2006,11,15,01,09,1007.45
2006,11,15,01,10,1007.45
2006,11,15,01,11,1007.45
2006,11,15,01,12,1007.45
2006,11,15,01,13,1007.45
2006,11,15,01,14,1007.45
2006,11,15,01,15,1006.40
2006,11,15,01,16,1006.40
2006,11,15,01,17,1006.40
2006,11,15,01,18,1006.40
2006,11,15,01,19,1006.40
2006,11,15,01,20,1006.40
2006,11,15,01,21,1006.40
2006,11,15,01,22,1006.40
2006,11,15,01,23,1006.40
2006,11,15,01,24,1006.40
2006,11,15,01,25,1006.40
2006,11,15,01,26,1006.40
2006,11,15,01,27,1006.40
2006,11,15,01,28,1006.40
2006,11,15,01,29,1006.40
2006,11,15,01,30,1005.88
2006,11,15,01,31,1005.86
2006,11,15,01,32,1005.86
2006,11,15,01,33,1005.86
2006,11,15,01,34,1005.86
2006,11,15,01,35,1005.86
2006,11,15,01,36,1005.86
2006,11,15,01,37,1005.86
2006,11,15,01,38,1005.86
2006,11,15,01,39,1005.86
2006,11,15,01,40,1005.86
2006,11,15,01,41,1005.86
2006,11,15,01,42,1005.86
2006,11,15,01,43,1005.86
2006,11,15,01,44,1005.86
2006,11,15,01,45,1005.28
2006,11,15,01,46,1005.28
2006,11,15,01,47,1005.28
2006,11,15,01,48,1005.28
2006,11,15,01,49,1005.28
2006,11,15,01,50,1005.28
2006,11,15,01,51,1005.28
2006,11,15,01,52,1005.28
2006,11,15,01,53,1005.28
2006,11,15,01,54,1005.28
2006,11,15,01,55,1005.28
2006,11,15,01,56,1005.28
2006,11,15,01,57,1005.28
2006,11,15,01,58,1005.28
2006,11,15,01,59,1005.28
2006,11,15,02,00,1004.88
2006,11,15,02,01,1004.88
2006,11,15,02,02,1004.88
2006,11,15,02,03,1004.88
2006,11,15,02,04,1004.88
2006,11,15,02,05,1004.88
2006,11,15,02,06,1004.88
2006,11,15,02,07,1004.88
2006,11,15,02,08,1004.88
2006,11,15,02,09,1004.88
2006,11,15,02,10,1004.88
2006,11,15,02,11,1004.88
2006,11,15,02,12,1004.88
2006,11,15,02,13,1004.88
2006,11,15,02,14,1004.88
2006,11,15,02,15,1004.47
2006,11,15,02,16,1004.47
2006,11,15,02,17,1004.47
2006,11,15,02,18,1004.47
2006,11,15,02,19,1004.47
2006,11,15,02,20,1004.47
2006,11,15,02,21,1004.47
2006,11,15,02,22,1004.47
2006,11,15,02,23,1004.47
2006,11,15,02,24,1004.47
2006,11,15,02,25,1004.47
2006,11,15,02,26,1004.47
2006,11,15,02,27,1004.47
2006,11,15,02,28,1004.47
2006,11,15,02,29,1004.47
2006,11,15,02,30,1003.96
2006,11,15,02,31,1003.93
2006,11,15,02,32,1003.93
2006,11,15,02,33,1003.93
2006,11,15,02,34,1003.93
2006,11,15,02,35,1003.93
2006,11,15,02,36,1003.93
2006,11,15,02,37,1003.93
2006,11,15,02,38,1003.93
2006,11,15,02,39,1003.93
2006,11,15,02,40,1003.93
2006,11,15,02,41,1003.93
2006,11,15,02,42,1003.93
2006,11,15,02,43,1003.93
2006,11,15,02,44,1003.93
2006,11,15,02,45,1003.61
2006,11,15,02,46,1003.59
2006,11,15,02,47,1003.59
2006,11,15,02,48,1003.59
2006,11,15,02,49,1003.59
2006,11,15,02,50,1003.59
2006,11,15,02,51,1003.59
2006,11,15,02,52,1003.59
2006,11,15,02,53,1003.59
2006,11,15,02,54,1003.59
2006,11,15,02,55,1003.59
2006,11,15,02,56,1003.59
2006,11,15,02,57,1003.59
2006,11,15,02,58,1003.59
2006,11,15,02,59,1003.59
2006,11,15,03,00,1003.40
2006,11,15,03,01,1003.39
2006,11,15,03,02,1003.39
2006,11,15,03,03,1003.39
2006,11,15,03,04,1003.39
2006,11,15,03,05,1003.39
2006,11,15,03,06,1003.39
2006,11,15,03,07,1003.39
2006,11,15,03,08,1003.39
2006,11,15,03,09,1003.39
2006,11,15,03,10,1003.39
2006,11,15,03,11,1003.39
2006,11,15,03,12,1003.39
2006,11,15,03,13,1003.39
2006,11,15,03,14,1003.39
2006,11,15,03,15,1002.68
2006,11,15,03,16,1002.68
2006,11,15,03,17,1002.68
2006,11,15,03,18,1002.68
2006,11,15,03,19,1002.68
2006,11,15,03,20,1002.68
2006,11,15,03,21,1002.68
2006,11,15,03,22,1002.68
2006,11,15,03,23,1002.68
2006,11,15,03,24,1002.68
2006,11,15,03,25,1002.68
2006,11,15,03,26,1002.68
2006,11,15,03,27,1002.68
2006,11,15,03,28,1002.68
2006,11,15,03,29,1002.68
2006,11,15,03,30,1001.90
2006,11,15,03,31,1001.90
2006,11,15,03,32,1001.90
2006,11,15,03,33,1001.90
2006,11,15,03,34,1001.90
2006,11,15,03,35,1001.90
2006,11,15,03,36,1001.90
2006,11,15,03,37,1001.90
2006,11,15,03,38,1001.90
2006,11,15,03,39,1001.90
2006,11,15,03,40,1001.90
2006,11,15,03,41,1001.90
2006,11,15,03,42,1001.90
2006,11,15,03,43,1001.90
2006,11,15,03,44,1001.90
2006,11,15,03,45,1001.80
2006,11,15,03,46,1001.80
2006,11,15,03,47,1001.80
2006,11,15,03,48,1001.80
2006,11,15,03,49,1001.80
2006,11,15,03,50,1001.80
2006,11,15,03,51,1001.80
2006,11,15,03,52,1001.80
2006,11,15,03,53,1001.80
2006,11,15,03,54,1001.80
2006,11,15,03,55,1001.80
2006,11,15,03,56,1001.80
2006,11,15,03,57,1001.80
2006,11,15,03,58,1001.80
2006,11,15,03,59,1001.80
2006,11,15,04,00,1001.15
2006,11,15,04,01,1001.12
2006,11,15,04,02,1001.12
2006,11,15,04,03,1001.12
2006,11,15,04,04,1001.12
2006,11,15,04,05,1001.12
2006,11,15,04,06,1001.12
2006,11,15,04,07,1001.12
2006,11,15,04,08,1001.12
2006,11,15,04,09,1001.12
2006,11,15,04,10,1001.12
2006,11,15,04,11,1001.12
2006,11,15,04,12,1001.12
2006,11,15,04,13,1001.12
2006,11,15,04,14,1001.12
2006,11,15,04,15,1000.85
2006,11,15,04,16,1000.85
2006,11,15,04,17,1000.85
2006,11,15,04,18,1000.85
2006,11,15,04,19,1000.85
2006,11,15,04,20,1000.85
2006,11,15,04,21,1000.85
2006,11,15,04,22,1000.85
2006,11,15,04,23,1000.85
2006,11,15,04,24,1000.85
2006,11,15,04,25,1000.85
2006,11,15,04,26,1000.85
2006,11,15,04,27,1000.85
2006,11,15,04,28,1000.85
2006,11,15,04,29,1000.85
2006,11,15,04,30,1000.30
2006,11,15,04,31,1000.27
2006,11,15,04,32,1000.27
2006,11,15,04,33,1000.27
2006,11,15,04,34,1000.27
2006,11,15,04,35,1000.27
2006,11,15,04,36,1000.27
2006,11,15,04,37,1000.27
2006,11,15,04,38,1000.27
2006,11,15,04,39,1000.27
2006,11,15,04,40,1000.27
2006,11,15,04,41,1000.27
2006,11,15,04,42,1000.27
2006,11,15,04,43,1000.27
2006,11,15,04,44,1000.27
2006,11,15,04,45,999.97
2006,11,15,04,46,999.97
2006,11,15,04,47,999.97
2006,11,15,04,48,999.97
2006,11,15,04,49,999.97
2006,11,15,04,50,999.97
2006,11,15,04,51,999.97
2006,11,15,04,52,999.97
2006,11,15,04,53,999.97
2006,11,15,04,54,999.97
2006,11,15,04,55,999.97
2006,11,15,04,56,999.97
2006,11,15,04,57,999.97
2006,11,15,04,58,999.97
2006,11,15,04,59,999.97
2006,11,15,05,00,999.43
2006,11,15,05,01,999.43
2006,11,15,05,02,999.43
2006,11,15,05,03,999.43
2006,11,15,05,04,999.43
2006,11,15,05,05,999.43
2006,11,15,05,06,999.43
2006,11,15,05,07,999.43
2006,11,15,05,08,999.43
2006,11,15,05,09,999.43
2006,11,15,05,10,999.43
2006,11,15,05,11,999.43
2006,11,15,05,12,999.43
2006,11,15,05,13,999.43
2006,11,15,05,14,999.43
2006,11,15,05,15,999.39
2006,11,15,05,16,999.39
2006,11,15,05,17,999.39
2006,11,15,05,18,999.39
2006,11,15,05,19,999.39
2006,11,15,05,20,999.39
2006,11,15,05,21,999.39
2006,11,15,05,22,999.39
2006,11,15,05,23,999.39
2006,11,15,05,24,999.39
2006,11,15,05,25,999.39
2006,11,15,05,26,999.39
2006,11,15,05,27,999.39
2006,11,15,05,28,999.39
2006,11,15,05,29,999.39
2006,11,15,05,30,999.70
2006,11,15,05,31,999.70
2006,11,15,05,32,999.70
2006,11,15,05,33,999.70
2006,11,15,05,34,999.70
2006,11,15,05,35,999.70
2006,11,15,05,36,999.70
2006,11,15,05,37,999.70
2006,11,15,05,38,999.70
2006,11,15,05,39,999.70
2006,11,15,05,40,999.70
2006,11,15,05,41,999.70
2006,11,15,05,42,999.70
2006,11,15,05,43,999.70
2006,11,15,05,44,999.70
2006,11,15,05,45,999.36
2006,11,15,05,46,999.36
2006,11,15,05,47,999.36
2006,11,15,05,48,999.36
2006,11,15,05,49,999.36
2006,11,15,05,50,999.36
2006,11,15,05,51,999.36
2006,11,15,05,52,999.36
2006,11,15,05,53,999.36
2006,11,15,05,54,999.36
2006,11,15,05,55,999.36
2006,11,15,05,56,999.36
2006,11,15,05,57,999.36
2006,11,15,05,58,999.36
2006,11,15,05,59,999.36
2006,11,15,06,00,998.97
2006,11,15,06,01,998.95
2006,11,15,06,02,998.95
2006,11,15,06,03,998.95
2006,11,15,06,04,998.95
2006,11,15,06,05,998.95
2006,11,15,06,06,998.95
2006,11,15,06,07,998.95
2006,11,15,06,08,998.95
2006,11,15,06,09,998.95
2006,11,15,06,10,998.95
2006,11,15,06,11,998.95
2006,11,15,06,12,998.95
2006,11,15,06,13,998.95
2006,11,15,06,14,998.95
2006,11,15,06,15,997.76
2006,11,15,06,16,997.70
2006,11,15,06,17,997.70
2006,11,15,06,18,997.70
2006,11,15,06,19,997.70
2006,11,15,06,20,997.70
2006,11,15,06,21,997.70
2006,11,15,06,22,997.70
2006,11,15,06,23,997.70
2006,11,15,06,24,997.70
2006,11,15,06,25,997.70
2006,11,15,06,26,997.70
2006,11,15,06,27,997.70
2006,11,15,06,28,997.70
2006,11,15,06,29,997.70
2006,11,15,06,30,997.86
2006,11,15,06,31,997.87
2006,11,15,06,32,997.87
2006,11,15,06,33,997.87
2006,11,15,06,34,997.87
2006,11,15,06,35,997.87
2006,11,15,06,36,997.87
2006,11,15,06,37,997.87
2006,11,15,06,38,997.87
2006,11,15,06,39,997.87
2006,11,15,06,40,997.87
2006,11,15,06,41,997.87
2006,11,15,06,42,997.87
2006,11,15,06,43,997.87
2006,11,15,06,44,997.87
2006,11,15,06,45,997.53
2006,11,15,06,46,997.53
2006,11,15,06,47,997.53
2006,11,15,06,48,997.53
2006,11,15,06,49,997.53
2006,11,15,06,50,997.53
2006,11,15,06,51,997.53
2006,11,15,06,52,997.53
2006,11,15,06,53,997.53
2006,11,15,06,54,997.53
2006,11,15,06,55,997.53
2006,11,15,06,56,997.53
2006,11,15,06,57,997.53
2006,11,15,06,58,997.53
2006,11,15,06,59,997.53
2006,11,15,07,00,997.04
2006,11,15,07,01,997.02
2006,11,15,07,02,997.02
2006,11,15,07,03,997.02
2006,11,15,07,04,997.02
2006,11,15,07,05,997.02
2006,11,15,07,06,997.02
2006,11,15,07,07,997.02
2006,11,15,07,08,997.02
2006,11,15,07,09,997.02
2006,11,15,07,10,997.02
2006,11,15,07,11,997.02
2006,11,15,07,12,997.02
2006,11,15,07,13,997.02
2006,11,15,07,14,997.02
2006,11,15,07,15,996.79
2006,11,15,07,16,996.78
2006,11,15,07,17,996.78
2006,11,15,07,18,996.78
2006,11,15,07,19,996.78
2006,11,15,07,20,996.78
2006,11,15,07,21,996.78
2006,11,15,07,22,996.78
2006,11,15,07,23,996.78
2006,11,15,07,24,996.78
2006,11,15,07,25,996.78
2006,11,15,07,26,996.78
2006,11,15,07,27,996.78
2006,11,15,07,28,996.78
2006,11,15,07,29,996.78
2006,11,15,07,30,996.31
2006,11,15,07,31,996.31
2006,11,15,07,32,996.31
2006,11,15,07,33,996.31
2006,11,15,07,34,996.31
2006,11,15,07,35,996.31
2006,11,15,07,36,996.31
2006,11,15,07,37,996.31
2006,11,15,07,38,996.31
2006,11,15,07,39,996.31
2006,11,15,07,40,996.31
2006,11,15,07,41,996.31
2006,11,15,07,42,996.31
2006,11,15,07,43,996.31
2006,11,15,07,44,996.31
2006,11,15,07,45,996.24
2006,11,15,07,46,996.24
2006,11,15,07,47,996.24
2006,11,15,07,48,996.24
2006,11,15,07,49,996.24
2006,11,15,07,50,996.24
2006,11,15,07,51,996.24
2006,11,15,07,52,996.24
2006,11,15,07,53,996.24
2006,11,15,07,54,996.24
2006,11,15,07,55,996.24
2006,11,15,07,56,996.24
2006,11,15,07,57,996.24
2006,11,15,07,58,996.24
2006,11,15,07,59,996.24
2006,11,15,08,00,995.77
2006,11,15,08,01,995.77
2006,11,15,08,02,995.77
2006,11,15,08,03,995.77
2006,11,15,08,04,995.77
2006,11,15,08,05,995.77
2006,11,15,08,06,995.77
2006,11,15,08,07,995.77
2006,11,15,08,08,995.77
2006,11,15,08,09,995.77
2006,11,15,08,10,995.77
2006,11,15,08,11,995.77
2006,11,15,08,12,995.77
2006,11,15,08,13,995.77
2006,11,15,08,14,995.77
2006,11,15,08,15,995.77
2006,11,15,08,16,995.77
2006,11,15,08,17,995.77
2006,11,15,08,18,995.77
2006,11,15,08,19,995.77
2006,11,15,08,20,995.77
2006,11,15,08,21,995.77
2006,11,15,08,22,995.77
2006,11,15,08,23,995.77
2006,11,15,08,24,995.77
2006,11,15,08,25,995.77
2006,11,15,08,26,995.77
2006,11,15,08,27,995.77
2006,11,15,08,28,995.77
2006,11,15,08,29,995.77
2006,11,15,08,30,994.86
2006,11,15,08,31,994.82
2006,11,15,08,32,994.82
2006,11,15,08,33,994.82
2006,11,15,08,34,994.82
2006,11,15,08,35,994.82
2006,11,15,08,36,994.82
2006,11,15,08,37,994.82
2006,11,15,08,38,994.82
2006,11,15,08,39,994.82
2006,11,15,08,40,994.82
2006,11,15,08,41,994.82
2006,11,15,08,42,994.82
2006,11,15,08,43,994.82
2006,11,15,08,44,994.82
2006,11,15,08,45,994.75
2006,11,15,08,46,994.75
2006,11,15,08,47,994.75
2006,11,15,08,48,994.75
2006,11,15,08,49,994.75
2006,11,15,08,50,994.75
2006,11,15,08,51,994.75
2006,11,15,08,52,994.75
2006,11,15,08,53,994.75
2006,11,15,08,54,994.75
2006,11,15,08,55,994.75
2006,11,15,08,56,994.75
2006,11,15,08,57,994.75
2006,11,15,08,58,994.75
2006,11,15,08,59,994.75
2006,11,15,09,00,994.72
2006,11,15,09,01,994.72
2006,11,15,09,02,994.72
2006,11,15,09,03,994.72
2006,11,15,09,04,994.72
2006,11,15,09,05,994.72
2006,11,15,09,06,994.72
2006,11,15,09,07,994.72
2006,11,15,09,08,994.72
2006,11,15,09,09,994.72
2006,11,15,09,10,994.72
2006,11,15,09,11,994.72
2006,11,15,09,12,994.72
2006,11,15,09,13,994.72
2006,11,15,09,14,994.72
2006,11,15,09,15,994.72
2006,11,15,09,16,994.72
2006,11,15,09,17,994.72
2006,11,15,09,18,994.72
2006,11,15,09,19,994.72
2006,11,15,09,20,994.72
2006,11,15,09,21,994.72
2006,11,15,09,22,994.72
2006,11,15,09,23,994.72
2006,11,15,09,24,994.72
2006,11,15,09,25,994.72
2006,11,15,09,26,994.72
2006,11,15,09,27,994.72
2006,11,15,09,28,994.72
2006,11,15,09,29,994.72
2006,11,15,09,30,994.17
2006,11,15,09,31,994.14
2006,11,15,09,32,994.14
2006,11,15,09,33,994.14
2006,11,15,09,34,994.14
2006,11,15,09,35,994.14
2006,11,15,09,36,994.14
2006,11,15,09,37,994.14
2006,11,15,09,38,994.14
2006,11,15,09,39,994.14
2006,11,15,09,40,994.14
2006,11,15,09,41,994.14
2006,11,15,09,42,994.14
2006,11,15,09,43,994.14
2006,11,15,09,44,994.14
2006,11,15,09,45,993.18
2006,11,15,09,46,993.13
2006,11,15,09,47,993.13
2006,11,15,09,48,993.13
2006,11,15,09,49,993.13
2006,11,15,09,50,993.13
2006,11,15,09,51,993.13
2006,11,15,09,52,993.13
2006,11,15,09,53,993.13
2006,11,15,09,54,993.13
2006,11,15,09,55,993.13
2006,11,15,09,56,993.13
2006,11,15,09,57,993.13
2006,11,15,09,58,993.13
2006,11,15,09,59,993.13
2006,11,15,10,00,992.69
2006,11,15,10,01,992.69
2006,11,15,10,02,992.69
2006,11,15,10,03,992.69
2006,11,15,10,04,992.69
2006,11,15,10,05,992.69
2006,11,15,10,06,992.69
2006,11,15,10,07,992.69
2006,11,15,10,08,992.69
2006,11,15,10,09,992.69
2006,11,15,10,10,992.69
2006,11,15,10,11,992.69
2006,11,15,10,12,992.69
2006,11,15,10,13,992.69
2006,11,15,10,14,992.69
2006,11,15,10,15,991.47
2006,11,15,10,16,991.47
2006,11,15,10,17,991.47
2006,11,15,10,18,991.47
2006,11,15,10,19,991.47
2006,11,15,10,20,991.47
2006,11,15,10,21,991.47
2006,11,15,10,22,991.47
2006,11,15,10,23,991.47
2006,11,15,10,24,991.47
2006,11,15,10,25,991.47
2006,11,15,10,26,991.47
2006,11,15,10,27,991.47
2006,11,15,10,28,991.47
2006,11,15,10,29,991.47
2006,11,15,10,30,991.17
2006,11,15,10,31,991.16
2006,11,15,10,32,991.16
2006,11,15,10,33,991.16
2006,11,15,10,34,991.16
2006,11,15,10,35,991.16
2006,11,15,10,36,991.16
2006,11,15,10,37,991.16
2006,11,15,10,38,991.16
2006,11,15,10,39,991.16
2006,11,15,10,40,991.16
2006,11,15,10,41,991.16
2006,11,15,10,42,991.16
2006,11,15,10,43,991.16
2006,11,15,10,44,991.16
2006,11,15,10,45,990.78
2006,11,15,10,46,990.76
2006,11,15,10,47,990.76
2006,11,15,10,48,990.76
2006,11,15,10,49,990.76
2006,11,15,10,50,990.76
2006,11,15,10,51,990.76
2006,11,15,10,52,990.76
2006,11,15,10,53,990.76
2006,11,15,10,54,990.76
2006,11,15,10,55,990.76
2006,11,15,10,56,990.76
2006,11,15,10,57,990.76
2006,11,15,10,58,990.76
2006,11,15,10,59,990.76
2006,11,15,11,00,990.72
2006,11,15,11,01,990.72
2006,11,15,11,02,990.72
2006,11,15,11,03,990.72
2006,11,15,11,04,990.72
2006,11,15,11,05,990.72
2006,11,15,11,06,990.72
2006,11,15,11,07,990.72
2006,11,15,11,08,990.72
2006,11,15,11,09,990.72
2006,11,15,11,10,990.72
2006,11,15,11,11,990.72
2006,11,15,11,12,990.72
2006,11,15,11,13,990.72
2006,11,15,11,14,990.72
2006,11,15,11,15,990.08
2006,11,15,11,16,990.08
2006,11,15,11,17,990.08
2006,11,15,11,18,990.08
2006,11,15,11,19,990.08
2006,11,15,11,20,990.08
2006,11,15,11,21,990.08
2006,11,15,11,22,990.08
2006,11,15,11,23,990.08
2006,11,15,11,24,990.08
2006,11,15,11,25,990.08
2006,11,15,11,26,990.08
2006,11,15,11,27,990.08
2006,11,15,11,28,990.08
2006,11,15,11,29,990.08
2006,11,15,11,30,989.76
2006,11,15,11,31,989.74
2006,11,15,11,32,989.74
2006,11,15,11,33,989.74
2006,11,15,11,34,989.74
2006,11,15,11,35,989.74
2006,11,15,11,36,989.74
2006,11,15,11,37,989.74
2006,11,15,11,38,989.74
2006,11,15,11,39,989.74
2006,11,15,11,40,989.74
2006,11,15,11,41,989.74
2006,11,15,11,42,989.74
2006,11,15,11,43,989.74
2006,11,15,11,44,989.74
2006,11,15,11,45,989.13
2006,11,15,11,46,989.13
2006,11,15,11,47,989.13
2006,11,15,11,48,989.13
2006,11,15,11,49,989.13
2006,11,15,11,50,989.13
2006,11,15,11,51,989.13
2006,11,15,11,52,989.13
2006,11,15,11,53,989.13
2006,11,15,11,54,989.13
2006,11,15,11,55,989.13
2006,11,15,11,56,989.13
2006,11,15,11,57,989.13
2006,11,15,11,58,989.13
2006,11,15,11,59,989.13
2006,11,15,12,00,988.49
2006,11,15,12,01,988.49
2006,11,15,12,02,988.49
2006,11,15,12,03,988.49
2006,11,15,12,04,988.49
2006,11,15,12,05,988.49
2006,11,15,12,06,988.49
2006,11,15,12,07,988.49
2006,11,15,12,08,988.49
2006,11,15,12,09,988.49
2006,11,15,12,10,988.49
2006,11,15,12,11,988.49
2006,11,15,12,12,988.49
2006,11,15,12,13,988.49
2006,11,15,12,14,988.49
2006,11,15,12,15,988.36
2006,11,15,12,16,988.35
2006,11,15,12,17,988.35
2006,11,15,12,18,988.35
2006,11,15,12,19,988.35
2006,11,15,12,20,988.35
2006,11,15,12,21,988.35
2006,11,15,12,22,988.35
2006,11,15,12,23,988.35
2006,11,15,12,24,988.35
2006,11,15,12,25,988.35
2006,11,15,12,26,988.35
2006,11,15,12,27,988.35
2006,11,15,12,28,988.35
2006,11,15,12,29,988.35
2006,11,15,12,30,987.58
2006,11,15,12,31,987.54
2006,11,15,12,32,987.54
2006,11,15,12,33,987.54
2006,11,15,12,34,987.54
2006,11,15,12,35,987.54
2006,11,15,12,36,987.54
2006,11,15,12,37,987.54
2006,11,15,12,38,987.54
2006,11,15,12,39,987.54
2006,11,15,12,40,987.54
2006,11,15,12,41,987.54
2006,11,15,12,42,987.54
2006,11,15,12,43,987.54
2006,11,15,12,44,987.54
2006,11,15,12,45,987.88
2006,11,15,12,46,987.88
2006,11,15,12,47,987.88
2006,11,15,12,48,987.88
2006,11,15,12,49,987.88
2006,11,15,12,50,987.88
2006,11,15,12,51,987.88
2006,11,15,12,52,987.88
2006,11,15,12,53,987.88
2006,11,15,12,54,987.88
2006,11,15,12,55,987.88
2006,11,15,12,56,987.88
2006,11,15,12,57,987.88
2006,11,15,12,58,987.88
2006,11,15,12,59,987.88
2006,11,15,13,00,987.03
2006,11,15,13,01,987.03
2006,11,15,13,02,987.03
2006,11,15,13,03,987.03
2006,11,15,13,04,987.03
2006,11,15,13,05,987.03
2006,11,15,13,06,987.03
2006,11,15,13,07,987.03
2006,11,15,13,08,987.03
2006,11,15,13,09,987.03
2006,11,15,13,10,987.03
2006,11,15,13,11,987.03
2006,11,15,13,12,987.03
2006,11,15,13,13,987.03
2006,11,15,13,14,987.03
2006,11,15,13,15,986.61
2006,11,15,13,16,986.59
2006,11,15,13,17,986.59
2006,11,15,13,18,986.59
2006,11,15,13,19,986.59
2006,11,15,13,20,986.59
2006,11,15,13,21,986.59
2006,11,15,13,22,986.59
2006,11,15,13,23,986.59
2006,11,15,13,24,986.59
2006,11,15,13,25,986.59
2006,11,15,13,26,986.59
2006,11,15,13,27,986.59
2006,11,15,13,28,986.59
2006,11,15,13,29,986.59
2006,11,15,13,30,986.59
2006,11,15,13,31,986.59
2006,11,15,13,32,986.59
2006,11,15,13,33,986.59
2006,11,15,13,34,986.59
2006,11,15,13,35,986.59
2006,11,15,13,36,986.59
2006,11,15,13,37,986.59
2006,11,15,13,38,986.59
2006,11,15,13,39,986.59
2006,11,15,13,40,986.59
2006,11,15,13,41,986.59
2006,11,15,13,42,986.59
2006,11,15,13,43,986.59
2006,11,15,13,44,986.59
2006,11,15,13,45,986.35
2006,11,15,13,46,986.35
2006,11,15,13,47,986.35
2006,11,15,13,48,986.35
2006,11,15,13,49,986.35
2006,11,15,13,50,986.35
2006,11,15,13,51,986.35
2006,11,15,13,52,986.35
2006,11,15,13,53,986.35
2006,11,15,13,54,986.35
2006,11,15,13,55,986.35
2006,11,15,13,56,986.35
2006,11,15,13,57,986.35
2006,11,15,13,58,986.35
2006,11,15,13,59,986.35
2006,11,15,14,00,985.85
2006,11,15,14,01,985.85
2006,11,15,14,02,985.85
2006,11,15,14,03,985.85
2006,11,15,14,04,985.85
2006,11,15,14,05,985.85
2006,11,15,14,06,985.85
2006,11,15,14,07,985.85
2006,11,15,14,08,985.85
2006,11,15,14,09,985.85
2006,11,15,14,10,985.85
2006,11,15,14,11,985.85
2006,11,15,14,12,985.85
2006,11,15,14,13,985.85
2006,11,15,14,14,985.85
2006,11,15,14,15,985.53
2006,11,15,14,16,985.51
2006,11,15,14,17,985.51
2006,11,15,14,18,985.51
2006,11,15,14,19,985.51
2006,11,15,14,20,985.51
2006,11,15,14,21,985.51
2006,11,15,14,22,985.51
2006,11,15,14,23,985.51
2006,11,15,14,24,985.51
2006,11,15,14,25,985.51
2006,11,15,14,26,985.51
2006,11,15,14,27,985.51
2006,11,15,14,28,985.51
2006,11,15,14,29,985.51
2006,11,15,14,30,985.47
2006,11,15,14,31,985.47
2006,11,15,14,32,985.47
2006,11,15,14,33,985.47
2006,11,15,14,34,985.47
2006,11,15,14,35,985.47
2006,11,15,14,36,985.47
2006,11,15,14,37,985.47
2006,11,15,14,38,985.47
2006,11,15,14,39,985.47
2006,11,15,14,40,985.47
2006,11,15,14,41,985.47
2006,11,15,14,42,985.47
2006,11,15,14,43,985.47
2006,11,15,14,44,985.47
2006,11,15,14,45,985.63
2006,11,15,14,46,985.64
2006,11,15,14,47,985.64
2006,11,15,14,48,985.64
2006,11,15,14,49,985.64
2006,11,15,14,50,985.64
2006,11,15,14,51,985.64
2006,11,15,14,52,985.64
2006,11,15,14,53,985.64
2006,11,15,14,54,985.64
2006,11,15,14,55,985.64
2006,11,15,14,56,985.64
2006,11,15,14,57,985.64
2006,11,15,14,58,985.64
2006,11,15,14,59,985.64
2006,11,15,15,00,985.03
2006,11,15,15,01,985.00
2006,11,15,15,02,985.00
2006,11,15,15,03,985.00
2006,11,15,15,04,985.00
2006,11,15,15,05,985.00
2006,11,15,15,06,985.00
2006,11,15,15,07,985.00
2006,11,15,15,08,985.00
2006,11,15,15,09,985.00
2006,11,15,15,10,985.00
2006,11,15,15,11,985.00
2006,11,15,15,12,985.00
2006,11,15,15,13,985.00
2006,11,15,15,14,985.00
2006,11,15,15,15,984.46
2006,11,15,15,16,984.46
2006,11,15,15,17,984.46
2006,11,15,15,18,984.46
2006,11,15,15,19,984.46
2006,11,15,15,20,984.46
2006,11,15,15,21,984.46
2006,11,15,15,22,984.46
2006,11,15,15,23,984.46
2006,11,15,15,24,984.46
2006,11,15,15,25,984.46
2006,11,15,15,26,984.46
2006,11,15,15,27,984.46
2006,11,15,15,28,984.46
2006,11,15,15,29,984.46
2006,11,15,15,30,983.68
2006,11,15,15,31,983.64
2006,11,15,15,32,983.64
2006,11,15,15,33,983.64
2006,11,15,15,34,983.64
2006,11,15,15,35,983.64
2006,11,15,15,36,983.64
2006,11,15,15,37,983.64
2006,11,15,15,38,983.64
2006,11,15,15,39,983.64
2006,11,15,15,40,983.64
2006,11,15,15,41,983.64
2006,11,15,15,42,983.64
2006,11,15,15,43,983.64
2006,11,15,15,44,983.64
2006,11,15,15,45,984.03
2006,11,15,15,46,984.05
2006,11,15,15,47,984.05
2006,11,15,15,48,984.05
2006,11,15,15,49,984.05
2006,11,15,15,50,984.05
2006,11,15,15,51,984.05
2006,11,15,15,52,984.05
2006,11,15,15,53,984.05
2006,11,15,15,54,984.05
2006,11,15,15,55,984.05
2006,11,15,15,56,984.05
2006,11,15,15,57,984.05
2006,11,15,15,58,984.05
2006,11,15,15,59,984.05
2006,11,15,16,00,984.69
2006,11,15,16,01,984.69
2006,11,15,16,02,984.69
2006,11,15,16,03,984.69
2006,11,15,16,04,984.69
2006,11,15,16,05,984.69
2006,11,15,16,06,984.69
2006,11,15,16,07,984.69
2006,11,15,16,08,984.69
2006,11,15,16,09,984.69
2006,11,15,16,10,984.69
2006,11,15,16,11,984.69
2006,11,15,16,12,984.69
2006,11,15,16,13,984.69
2006,11,15,16,14,984.69
2006,11,15,16,15,985.01
2006,11,15,16,16,985.03
2006,11,15,16,17,985.03
2006,11,15,16,18,985.03
2006,11,15,16,19,985.03
2006,11,15,16,20,985.03
2006,11,15,16,21,985.03
2006,11,15,16,22,985.03
2006,11,15,16,23,985.03
2006,11,15,16,24,985.03